K6JWN Weather Reports


Display with metric or nautical units.
time (UTC)temp
F
wind
direction
speed
MPH
gust
MPH
rain 1hr
in
rain 24hr
in
rain mn
in
humidity
%
barometer
mb
20260506112916 56 0.0 0.0 0.00 0.00 0.00 77 1018.8
20260506111916 56 45 1.0 1.0 0.00 0.00 0.00 77 1018.7
20260506110916 57 0.0 0.0 0.00 0.00 0.00 77 1018.6
20260506105916 57 225 1.0 2.0 0.00 0.00 0.00 77 1018.5
20260506104916 57 0.0 1.0 0.00 0.00 0.00 77 1018.3
20260506103916 57 45 1.0 2.0 0.00 0.00 0.00 77 1018.4
20260506102916 57 0.0 0.0 0.00 0.00 0.00 77 1018.2
20260506101916 57 0.0 0.0 0.00 0.00 0.00 77 1018.3
20260506100916 57 0.0 0.0 0.00 0.00 0.00 77 1018.1
20260506095917 57 0.0 1.0 0.00 0.01 0.00 77 1018.2
20260506094916 57 0.0 0.0 0.00 0.01 0.00 76 1018.2
20260506093916 57 0.0 1.0 0.00 0.01 0.00 76 1018.2
20260506092916 57 0.0 1.0 0.00 0.01 0.00 76 1018.2
20260506091916 57 0.0 2.0 0.00 0.01 0.00 76 1018.1
20260506090916 57 0.0 0.0 0.00 0.01 0.00 76 1018.1
20260506085916 57 0.0 0.0 0.00 0.01 0.00 76 1018.1
20260506084916 57 225 1.0 1.0 0.00 0.01 0.00 76 1018.1
20260506083916 57 225 1.0 2.0 0.00 0.01 0.00 76 1018.2
20260506082916 57 225 1.0 1.0 0.00 0.01 0.00 76 1018.3
20260506081916 57 45 1.0 1.0 0.00 0.01 0.00 77 1018.3
20260506080916 57 225 1.0 1.0 0.00 0.01 0.00 78 1018.2
20260506072916 57 0.0 0.0 0.00 0.02 0.00 77 1017.9
20260506071916 57 0.0 0.0 0.00 0.02 0.00 77 1017.8
20260506070916 57 225 1.0 3.0 0.00 0.03 0.00 77 1017.6
20260506061917 58 225 3.0 4.0 0.00 0.05 0.03 76 1017.2
20260506060917 58 225 2.0 4.0 0.00 0.05 0.03 76 1017.0
20260506050917 58 225 2.0 3.0 0.00 0.09 0.03 75 1016.5
20260506044917 59 225 3.0 4.0 0.00 0.09 0.03 74 1016.4
20260506043917 60 225 4.0 5.0 0.00 0.09 0.03 73 1016.2
20260506042917 61 225 5.0 8.0 0.00 0.10 0.03 72 1015.9
20260506041917 62 225 4.0 6.0 0.00 0.11 0.03 73 1015.8
20260506040917 62 225 1.0 1.0 0.00 0.11 0.03 73 1015.8
20260506035917 62 225 1.0 1.0 0.00 0.12 0.03 72 1015.7
20260506034917 62 225 2.0 3.0 0.00 0.13 0.03 72 1015.6
20260506033917 62 225 1.0 1.0 0.00 0.14 0.03 72 1015.7
20260506032917 62 225 1.0 1.0 0.00 0.16 0.03 72 1015.4
20260506031917 63 225 2.0 2.0 0.00 0.18 0.03 71 1015.2
20260506030918 63 225 2.0 3.0 0.00 0.19 0.03 71 1015.2
20260506025917 63 225 2.0 3.0 0.00 0.19 0.03 70 1015.2
20260506024917 63 225 2.0 4.0 0.00 0.19 0.03 70 1014.9
20260506023917 63 225 3.0 4.0 0.00 0.19 0.03 70 1014.8
20260506022917 63 225 2.0 4.0 0.00 0.19 0.03 70 1014.6
20260506021917 63 225 2.0 3.0 0.00 0.19 0.03 70 1014.6
20260506020920 64 225 3.0 4.0 0.00 0.19 0.03 70 1014.6
20260506015917 64 225 3.0 4.0 0.00 0.19 0.03 70 1014.6
20260506014917 64 45 4.0 6.0 0.00 0.19 0.03 70 1014.6
20260506013917 64 45 3.0 4.0 0.00 0.19 0.03 69 1014.5
20260506012917 64 45 2.0 4.0 0.00 0.19 0.03 70 1014.5
20260506011917 64 45 2.0 5.0 0.00 0.19 0.03 68 1014.5
20260506010917 64 45 3.0 4.0 0.00 0.20 0.03 68 1014.3
20260506005917 64 45 3.0 4.0 0.00 0.20 0.03 68 1014.3
20260506004917 65 225 1.0 2.0 0.00 0.20 0.03 66 1014.3
20260506003917 65 45 1.0 2.0 0.00 0.21 0.03 66 1014.3
20260506002917 65 225 2.0 3.0 0.00 0.22 0.03 65 1014.3
20260506001917 65 225 1.0 2.0 0.00 0.22 0.03 66 1014.2
20260506000917 65 225 4.0 6.0 0.00 0.22 0.03 66 1014.2
20260505235917 65 225 5.0 6.0 0.00 0.22 0.03 64 1014.2
20260505234917 66 225 5.0 6.0 0.00 0.22 0.03 64 1014.2
20260505233917 67 225 4.0 6.0 0.00 0.22 0.03 63 1014.1
20260505232917 68 225 7.0 9.0 0.00 0.22 0.03 61 1014.0
20260505231917 68 225 2.0 3.0 0.00 0.22 0.03 60 1014.0
20260505230917 68 225 4.0 6.0 0.00 0.22 0.03 62 1013.9
20260505225917 68 225 3.0 5.0 0.00 0.22 0.03 61 1014.2
20260505224917 68 225 4.0 6.0 0.00 0.22 0.03 61 1014.1
20260505223917 68 225 3.0 5.0 0.00 0.22 0.03 62 1014.2
20260505222917 67 45 2.0 2.0 0.00 0.22 0.03 62 1014.4
20260505221917 67 225 1.0 3.0 0.00 0.22 0.03 65 1014.4
20260505220917 65 225 3.0 4.0 0.00 0.22 0.03 67 1014.5
20260505215917 65 225 2.0 5.0 0.00 0.22 0.03 68 1014.6
20260505214917 64 225 2.0 4.0 0.00 0.22 0.03 66 1014.7
20260505213917 64 225 4.0 5.0 0.00 0.22 0.03 69 1014.7
20260505212917 63 225 5.0 6.0 0.00 0.22 0.03 68 1014.8
20260505211917 63 225 6.0 10.0 0.00 0.22 0.03 70 1014.8
20260505210917 64 225 4.0 7.0 0.00 0.22 0.03 70 1014.8
20260505205917 64 225 7.0 8.0 0.00 0.22 0.03 68 1014.9
20260505204917 65 225 5.0 6.0 0.00 0.22 0.03 64 1014.9
20260505203917 65 45 1.0 2.0 0.00 0.22 0.03 65 1015.0
20260505202917 64 45 2.0 3.0 0.00 0.22 0.03 64 1014.9
20260505201917 64 0.0 1.0 0.00 0.22 0.03 67 1014.9
20260505200917 63 225 1.0 2.0 0.00 0.22 0.03 67 1015.1
20260505195917 62 45 2.0 3.0 0.00 0.23 0.03 69 1015.1
20260505194917 62 45 4.0 5.0 0.00 0.23 0.03 68 1015.1
20260505193917 62 225 4.0 6.0 0.00 0.23 0.03 69 1015.2
20260505192917 62 225 3.0 4.0 0.00 0.23 0.03 69 1015.2
20260505191916 62 225 3.0 5.0 0.00 0.23 0.03 69 1015.1
20260505190917 61 45 3.0 4.0 0.00 0.23 0.03 70 1015.2
20260505185918 62 225 3.0 4.0 0.00 0.23 0.03 71 1015.2
20260505184917 61 225 4.0 6.0 0.00 0.23 0.03 70 1015.1
20260505183917 60 225 4.0 6.0 0.00 0.23 0.03 73 1014.9
20260505182917 60 225 3.0 7.0 0.00 0.23 0.03 74 1014.9
20260505181917 59 225 4.0 5.0 0.00 0.23 0.03 73 1015.1
20260505180916 59 225 3.0 4.0 0.00 0.23 0.03 75 1014.9
20260505175917 59 225 6.0 7.0 0.00 0.23 0.03 74 1014.8
20260505174917 60 225 4.0 6.0 0.00 0.23 0.03 72 1014.8
20260505173917 59 225 4.0 6.0 0.00 0.23 0.03 75 1014.7
20260505172917 59 225 4.0 6.0 0.00 0.23 0.03 74 1014.7
20260505171916 58 225 2.0 3.0 0.00 0.23 0.03 76 1014.7
20260505170917 58 225 4.0 5.0 0.00 0.23 0.03 77 1014.7
20260505165916 57 225 3.0 4.0 0.00 0.23 0.03 78 1014.8
20260505164916 56 225 1.0 2.0 0.00 0.23 0.03 78 1014.9
20260505163917 56 225 4.0 5.0 0.00 0.23 0.03 79 1014.7
20260505162916 55 225 2.0 3.0 0.00 0.23 0.03 80 1014.8
20260505161916 55 225 2.0 4.0 0.00 0.23 0.03 80 1014.7
20260505160917 55 225 3.0 3.0 0.00 0.23 0.03 81 1014.7
20260505152917 54 225 4.0 6.0 0.00 0.23 0.03 83 1014.6
20260505151917 54 225 4.0 8.0 0.00 0.23 0.03 84 1014.5
20260505150917 54 225 3.0 5.0 0.00 0.23 0.03 84 1014.3
20260505124916 53 45 2.0 3.0 0.00 0.25 0.03 85 1013.6
20260505123917 53 45 2.0 3.0 0.00 0.25 0.03 85 1013.5
20260505122916 53 45 2.0 3.0 0.00 0.25 0.03 85 1013.6
20260505121916 53 225 1.0 2.0 0.00 0.25 0.03 85 1013.5
20260505120916 52 225 1.0 2.0 0.00 0.25 0.03 85 1013.7
20260505115916 52 225 1.0 2.0 0.00 0.25 0.03 85 1013.7
20260505114916 52 45 2.0 4.0 0.00 0.25 0.03 85 1013.6
20260505113916 52 225 2.0 3.0 0.00 0.25 0.03 85 1013.6